Weather History for Quincy, IL

Change the Weather History Date:

Friday, June 8, 2012

  Actual Average Record
Temperature  
Mean Temperature 72 °F 70 °F  
Max Temperature 86 °F 80 °F 97 °F (1934)
Min Temperature 61 °F 60 °F 40 °F (1913)
Degree Days  
Heating Degree Days 0 1  
Month to date heating degree days 10  
Since 1 June heating degree days 10  
Since 1 July heating degree days 5576  
Cooling Degree Days 8 6  
Month to date cooling degree days 41  
Year to date cooling degree days 127  
Since 1 June cooling degree days 41  
Growing Degree Days 22 (Base 50)    
Moisture  
Dew Point 49 °F    
Average Humidity 43    
Maximum Humidity 65    
Minimum Humidity 28    
Precipitation  
Precipitation 0.00 in 0.14 in 2.09 in (1984)
Month to date precipitation 1.17  
Year to date precipitation 15.26  
Sea Level Pressure  
Sea Level Pressure 30.02 in    
Wind  
Wind Speed 5 mph (SSE)    
Max Wind Speed 13 mph    
Max Gust Speed 17 mph    
Visibility 10 miles    
Events      
T = Trace of Precipitation, MM = Missing Value Source: NWS Daily Summary

Daily Weather History Graph

Daily Weather History Graph

Search for Another Location

Airport:

Trip Planner

Search our weather history database for the weather conditions in past years. The results will help you decide how hot, cold, wet, or windy it might be!

Date:

Astronomy

Jun. 08, 2012 Rise Set
Actual Time 5:35 AM CDT 8:32 PM CDT
Civil Twilight 5:03 AM CDT 9:04 PM CDT
Nautical Twilight 4:22 AM CDT 9:45 PM CDT
Astronomical Twilight 3:34 AM CDT 10:33 PM CDT
Moon 11:56 PM CDT (6/8) 10:15 AM CDT (6/8)
Length of Visible Light 16h 01m
Length of Day
14h 56m
Waning Gibbous, 77% of the Moon is Illuminated
Jun 8
Waning Gibbous
Jun 11
Last Quarter
Jun 19
New
Jun 26
First Quarter
Jul 3
Full

Hourly Weather History & Observations

Time (CDT) Temp. Dew Point Humidity Pressure Visibility Wind Dir Wind Speed Gust Speed Precip Events Conditions
12:54 AM 64.9 °F 46.0 °F 50% 30.07 in 10.0 mi SE 4.6 mph - N/A   Clear
1:54 AM 64.9 °F 45.0 °F 48% 30.07 in 10.0 mi SE 3.5 mph - N/A   Clear
2:54 AM 64.0 °F 45.0 °F 50% 30.08 in 10.0 mi SE 3.5 mph - N/A   Clear
3:54 AM 62.1 °F 46.0 °F 56% 30.08 in 10.0 mi Calm Calm - N/A   Clear
4:54 AM 61.0 °F 46.0 °F 58% 30.09 in 10.0 mi Calm Calm - N/A   Clear
5:54 AM 62.1 °F 46.0 °F 56% 30.09 in 10.0 mi Calm Calm - N/A   Clear
6:54 AM 63.0 °F 51.1 °F 65% 30.09 in 10.0 mi Calm Calm - N/A   Clear
7:54 AM 69.1 °F 50.0 °F 51% 30.10 in 10.0 mi Calm Calm - N/A   Clear
8:54 AM 75.0 °F 51.1 °F 43% 30.09 in 10.0 mi South 8.1 mph - N/A   Clear
9:54 AM 78.1 °F 48.0 °F 35% 30.08 in 10.0 mi SSE 9.2 mph - N/A   Clear
10:54 AM 80.1 °F 48.9 °F 34% 30.07 in 10.0 mi South 9.2 mph - N/A   Clear
11:54 AM 80.1 °F 48.0 °F 32% 30.05 in 10.0 mi South 5.8 mph - N/A   Clear
12:54 PM 82.9 °F 48.9 °F 31% 30.04 in 10.0 mi SSW 10.4 mph 16.1 mph N/A   Clear
1:54 PM 84.0 °F 48.9 °F 29% 30.02 in 10.0 mi SSW 11.5 mph 17.3 mph N/A   Clear
2:54 PM 82.9 °F 48.0 °F 29% 30.00 in 10.0 mi Variable 3.5 mph - N/A   Clear
3:54 PM 84.9 °F 48.0 °F 28% 29.98 in 10.0 mi Variable 4.6 mph - N/A   Clear
4:54 PM 84.9 °F 48.0 °F 28% 29.96 in 10.0 mi South 12.7 mph 16.1 mph N/A   Clear
5:54 PM 84.0 °F 48.0 °F 28% 29.94 in 10.0 mi South 9.2 mph - N/A   Clear
6:54 PM 82.9 °F 48.9 °F 31% 29.93 in 10.0 mi SSE 8.1 mph - N/A   Clear
7:54 PM 79.0 °F 51.1 °F 38% 29.93 in 10.0 mi SSE 5.8 mph - N/A   Clear
8:54 PM 73.0 °F 52.0 °F 48% 29.93 in 10.0 mi SSE 4.6 mph - N/A   Clear
9:54 PM 70.0 °F 52.0 °F 53% 29.94 in 10.0 mi SSE 4.6 mph - N/A   Clear
10:54 PM 71.1 °F 51.1 °F 49% 29.94 in 10.0 mi SSE 5.8 mph - N/A   Clear
11:54 PM 69.1 °F 50.0 °F 51% 29.94 in 10.0 mi SSE 5.8 mph - N/A   Clear